Regional Weather Roundup
Issued by NWS

Home | Current Version | Previous Version | Graphics & Text | Print | Product List | Glossary On
Versions: 1 2 3 4 5 6 7 8 9 10 11 12 13 14 15 16 17 18 19 20 21 22 23 24 25 26 27
000
ASUS45 KSLC 241310
RWRUT

UTAH REGIONAL WEATHER ROUNDUP
NATIONAL WEATHER SERVICE SALT LAKE CITY UT
700 AM MDT MON APR 24 2017

UTZ001>011-023>025-241400-

NORTHERN UTAH

CITY           SKY/WX    TMP DP  RH WIND       PRES   REMARKS
BRIGHAM CITY   CLOUDY    47  39  73 NW6       29.71S
DUGWAY         MOCLDY    41  37  86 E6        29.70
HILL AFB       MOCLDY    44  32  63 SE13      29.71F
LOGAN          CLOUDY    40  37  89 W5        29.71F
OGDEN          MOCLDY    44  34  67 S9        29.70F
SALT LAKE CITY MOCLDY    52  39  61 SE15      29.70F
TOOELE VALLEY  MOCLDY    46  36  66 S17       29.69F
WENDOVER       CLOUDY    53  26  35 NW8       29.70F
HEBER CITY     CLOUDY    34  32  93 CALM      29.78S
WEST JORDAN    MOCLDY    50  46  84 S12       29.72F

$$

UTZ011>015-024>027-241400-

CENTRAL/NORTHEAST UTAH

CITY           SKY/WX    TMP DP  RH WIND       PRES   REMARKS
PROVO AIRPORT  CLOUDY    44  39  82 E3        29.76S
MOAB/CANYONLAN MOCLDY    48  33  56 SW7       29.76R
DELTA          CLOUDY    43  39  87 NE6       29.74F
PRICE          PTCLDY    40  31  70 NE3       29.80S
ROOSEVELT      CLOUDY    41  30  65 W3        29.81S
VERNAL         CLOUDY    44  35  70 N6        29.80R

$$

UTZ013>016-019>022-027-241400-

SOUTHERN UTAH

CITY           SKY/WX    TMP DP  RH WIND       PRES   REMARKS
BRYCE CANYON   CLOUDY    29  23  78 CALM      29.89S
CEDAR CITY     MOCLDY    36  29  75 S3        29.78R
MILFORD        CLOUDY    38  34  85 S12       29.75S WCI  30
ST GEORGE      CLOUDY    56  27  32 CALM      29.71R
HANKSVILLE     PTCLDY    41  30  65 CALM      29.80R
BLANDING       MOCLDY    42  26  52 NE7       29.90S

$$

REGIONAL REPORTS     COLORADO/ARIZONA

CITY           SKY/WX    TMP DP  RH WIND       PRES   REMARKS
CRAIG, CO      CLOUDY    42  36  79 E5        29.84R
GRAND JUNCTION CLOUDY    48  32  53 NE3       29.78R
RIFLE, CO      CLOUDY    46  37  71 SE3       29.81R
MONTROSE, CO   CLEAR     49  29  46 NE5       29.84R
CORTEZ, CO     CLOUDY    36  26  67 NE3       29.86R
COLORADO CITY    N/A     37  28  70 SE3       29.81S
PAGE, AZ       PTCLDY    54  29  38 CALM      29.75S
GRAND CANYON   PTCLDY    45  26  47 SW10      29.88S
KINGMAN, AZ    CLEAR     51  24  34 S9        29.76R
FLAGSTAFF, AZ  PTCLDY    42  23  46 SW6       29.92F

$$

REGIONAL REPORTS    NEVADA/IDAHO/WYOMING

CITY           SKY/WX    TMP DP  RH WIND       PRES   REMARKS
LAS VEGAS, NV  MOCLDY    64  26  23 S5        29.66R
ELY, NY        CLOUDY    36  28  73 S9        29.79F WCI  29
ELKO, NV       CLOUDY    47  28  47 W18       29.77S
POCATELLO, ID  CLOUDY    45  37  73 W7        29.73S
BURLEY, ID     CLOUDY    43  38  82 CALM      29.69F
EVANSTON, WY   CLOUDY    34  30  85 S7        29.78F WCI  28
ROCK SPRINGS,  CLOUDY    37  32  82 S6        29.79S WCI  32
KEMMERER, WY     N/A     28  28 100 N9        29.79S WCI  20

$$




USA.gov is the U.S. government's official web portal to all federal, state and local government web resources and services.